Tracking 28126 objects as of 1-Oct-2023
HD Live streaming from Space Station
objects crossing your sky now

STARLINK-5442

Track STARLINK-5442 now!
10-day predictions
STARLINK-5442 is classified as:


NORAD ID: 54784
Int'l Code: 2022-175AC
Perigee: 545.9 km
Apogee: 547.8 km
Inclination: 53.2 °
Period: 95.4 minutes
Semi major axis: 6917 km
RCS: Unknown
Launch date: December 17, 2022
Source: United States (US)
Launch site: AIR FORCE EASTERN TEST RANGE (AFETR)
Your satellite tracking list
Your tracking list is empty




NASA's NSSDC Master Catalog

Two Line Element Set (TLE):
1 54784U 22175AC  23273.76866798  .00000362  00000-0  40835-4 0  9994
2 54784  53.2162  83.3793 0001389  72.7715 287.3429 15.08845980 43260
Source of the keplerian elements: AFSPC